When you browse on this site, cookies collect data to enhance your experience and personalize the content and advertising you see.
Visit our Privacy Policy to learn more. By continuing to use the site, you agree to this use of cookies and data.
  • In Czech Republic
  • List of Countries
  • For 7 days
  • Water Temperature
  • Satellite Maps
  • Weather Map
  • Weather Widgets
  • user-avatar
    Login

    Hourly Weather La Rioja

    Today, 20 January, Sunday

    Time Temperature Precipitation Wind Pressure Humidity
    00:00 +24°C° 0 mm 2 mps 716 mmHg 68%
    01:00 +23°C° 0 mm 2 mps 716 mmHg 70%
    02:00 +21°C° 0 mm 2 mps 715 mmHg 72%
    03:00 +21°C° 0 mm 2 mps 715 mmHg 73%
    04:00 +21°C° 0 mm 2 mps 715 mmHg 74%
    05:00 +21°C° 0 mm 2 mps 715 mmHg 75%
    06:00 +21°C° 0 mm 2 mps 715 mmHg 73%
    07:00 +23°C° 0 mm 2 mps 715 mmHg 71%
    08:00 +23°C° 0 mm 2 mps 715 mmHg 69%
    09:00 +25°C° 0 mm 2 mps 715 mmHg 64%
    10:00 +26°C° 0 mm 2 mps 714 mmHg 58%
    11:00 +28°C° 0 mm 3 mps 714 mmHg 53%
    12:00 +29°C° 0 mm 3 mps 713 mmHg 50%
    13:00 +31°C° 0 mm 3 mps 712 mmHg 46%
    14:00 +33°C° 0 mm 4 mps 712 mmHg 43%
    15:00 +33°C° 0 mm 4 mps 711 mmHg 42%
    16:00 +34°C° 0 mm 4 mps 711 mmHg 41%
    17:00 +34°C° 0 mm 4 mps 710 mmHg 40%
    18:00 +33°C° 0 mm 3 mps 710 mmHg 43%
    19:00 +31°C° 0 mm 3 mps 711 mmHg 46%
    20:00 +30°C° 0 mm 3 mps 711 mmHg 49%
    21:00 +29°C° 0 mm 2 mps 712 mmHg 53%
    22:00 +28°C° 0 mm 2 mps 712 mmHg 57%
    23:00 +27°C° 0 mm 2 mps 713 mmHg 61%

    Tomorrow, 21 January, Monday

    Time Temperature Precipitation Wind Pressure Humidity
    00:00 +27°C° 0 mm 2 mps 713 mmHg 63%
    01:00 +26°C° 0 mm 1 mps 713 mmHg 66%
    02:00 +26°C° 0 mm 1 mps 712 mmHg 68%
    03:00 +25°C° 0 mm 1 mps 712 mmHg 71%
    04:00 +24°C° 0 mm 1 mps 712 mmHg 73%
    05:00 +24°C° 0 mm 2 mps 712 mmHg 75%
    06:00 +24°C° 0 mm 2 mps 713 mmHg 73%
    07:00 +25°C° 0 mm 2 mps 713 mmHg 71%
    08:00 +26°C° 0 mm 2 mps 714 mmHg 68%
    09:00 +27°C° 0 mm 3 mps 714 mmHg 62%
    10:00 +29°C° 0 mm 3 mps 714 mmHg 56%
    11:00 +31°C° 0 mm 3 mps 714 mmHg 50%
    12:00 +33°C° 0 mm 3 mps 714 mmHg 46%
    13:00 +34°C° 0 mm 3 mps 713 mmHg 43%
    14:00 +35°C° 0 mm 3 mps 712 mmHg 40%
    15:00 +35°C° 0 mm 3 mps 712 mmHg 39%
    16:00 +36°C° 0 mm 3 mps 711 mmHg 37%
    17:00 +36°C° 0 mm 2 mps 711 mmHg 36%
    18:00 +35°C° 0 mm 2 mps 711 mmHg 38%
    19:00 +33°C° 0 mm 1 mps 712 mmHg 40%
    20:00 +32°C° 0 mm 1 mps 712 mmHg 43%
    21:00 +31°C° 0 mm 1 mps 712 mmHg 45%
    22:00 +30°C° 0 mm 1 mps 713 mmHg 48%
    23:00 +30°C° 0 mm 1 mps 713 mmHg 51%

    Day after tomorrow, 22 January, Tuesday

    Time Temperature Precipitation Wind Pressure Humidity
    00:00 +29°C° 0 mm 1 mps 713 mmHg 53%
    01:00 +29°C° 0 mm 1 mps 712 mmHg 55%
    02:00 +28°C° 0 mm 1 mps 712 mmHg 58%
    03:00 +26°C° 0 mm 0 mps 711 mmHg 60%
    04:00 +25°C° 0 mm 0 mps 711 mmHg 62%
    05:00 +25°C° 0 mm 0 mps 711 mmHg 65%
    06:00 +28°C° 0 mm 1 mps 711 mmHg 61%
    07:00 +29°C° 0 mm 1 mps 712 mmHg 57%
    08:00 +30°C° 0 mm 2 mps 712 mmHg 53%
    09:00 +32°C° 0 mm 2 mps 712 mmHg 49%
    10:00 +34°C° 0 mm 2 mps 712 mmHg 46%
    11:00 +35°C° 0 mm 3 mps 712 mmHg 42%
    12:00 +37°C° 0 mm 3 mps 711 mmHg 39%
    13:00 +38°C° 0 mm 3 mps 711 mmHg 36%
    14:00 +39°C° 0 mm 3 mps 710 mmHg 34%
    15:00 +39°C° 0 mm 3 mps 710 mmHg 33%
    16:00 +39°C° 0 mm 3 mps 709 mmHg 32%
    17:00 +40°C° 0 mm 3 mps 709 mmHg 31%
    18:00 +39°C° 0 mm 2 mps 710 mmHg 34%
    19:00 +38°C° 0 mm 2 mps 710 mmHg 36%
    20:00 +37°C° 0 mm 2 mps 711 mmHg 38%
    21:00 +36°C° 0.1 mm 2 mps 711 mmHg 41%
    22:00 +34°C° 0.1 mm 1 mps 712 mmHg 44%
    23:00 +33°C° 0.1 mm 1 mps 713 mmHg 47%

    23 January, Wednesday

    Time Temperature Precipitation Wind Pressure Humidity
    00:00 +32°C° 0 mm 2 mps 713 mmHg 47%
    01:00 +32°C° 0 mm 2 mps 712 mmHg 47%
    02:00 +32°C° 0 mm 2 mps 712 mmHg 47%
    03:00 +31°C° 0.1 mm 2 mps 712 mmHg 46%
    04:00 +31°C° 0.1 mm 2 mps 712 mmHg 45%
    05:00 +31°C° 0.1 mm 2 mps 712 mmHg 44%
    06:00 +32°C° 0.1 mm 2 mps 713 mmHg 42%
    07:00 +34°C° 0.1 mm 2 mps 714 mmHg 39%
    08:00 +35°C° 0.1 mm 2 mps 714 mmHg 36%
    09:00 +36°C° 0 mm 2 mps 714 mmHg 35%
    10:00 +37°C° 0 mm 3 mps 714 mmHg 34%
    11:00 +39°C° 0 mm 3 mps 714 mmHg 33%
    12:00 +39°C° 0 mm 3 mps 713 mmHg 32%
    13:00 +40°C° 0 mm 3 mps 712 mmHg 31%
    14:00 +42°C° 0 mm 3 mps 712 mmHg 30%
    15:00 +42°C° 0.1 mm 3 mps 711 mmHg 30%
    16:00 +42°C° 0.1 mm 3 mps 711 mmHg 30%
    17:00 +42°C° 0.1 mm 3 mps 710 mmHg 29%
    18:00 +40°C° 0.2 mm 3 mps 711 mmHg 32%
    19:00 +39°C° 0.2 mm 3 mps 711 mmHg 35%
    20:00 +38°C° 0.2 mm 2 mps 711 mmHg 38%
    21:00 +37°C° 0.1 mm 2 mps 712 mmHg 41%
    22:00 +35°C° 0.1 mm 2 mps 712 mmHg 43%
    23:00 +34°C° 0.1 mm 2 mps 713 mmHg 46%

    24 January, Thursday

    Time Temperature Precipitation Wind Pressure Humidity
    00:00 +34°C° 0.1 mm 2 mps 712 mmHg 49%
    01:00 +32°C° 0.1 mm 2 mps 712 mmHg 51%
    02:00 +31°C° 0.1 mm 2 mps 712 mmHg 54%
    03:00 +31°C° 0 mm 1 mps 711 mmHg 55%
    04:00 +31°C° 0 mm 1 mps 711 mmHg 56%
    05:00 +31°C° 0 mm 1 mps 711 mmHg 57%
    06:00 +31°C° 0 mm 1 mps 711 mmHg 57%
    07:00 +31°C° 0 mm 1 mps 712 mmHg 56%
    08:00 +32°C° 0 mm 1 mps 712 mmHg 56%
    09:00 +33°C° 0 mm 1 mps 712 mmHg 52%
    10:00 +35°C° 0 mm 2 mps 712 mmHg 47%
    11:00 +37°C° 0 mm 2 mps 711 mmHg 42%
    12:00 +38°C° 0 mm 2 mps 711 mmHg 38%
    13:00 +39°C° 0 mm 3 mps 710 mmHg 35%
    14:00 +42°C° 0 mm 4 mps 709 mmHg 31%
    15:00 +42°C° 0 mm 4 mps 708 mmHg 30%
    16:00 +42°C° 0 mm 5 mps 708 mmHg 29%
    17:00 +42°C° 0 mm 5 mps 707 mmHg 28%
    18:00 +41°C° 0 mm 4 mps 708 mmHg 32%
    19:00 +38°C° 0 mm 3 mps 708 mmHg 35%
    20:00 +37°C° 0 mm 2 mps 708 mmHg 39%
    21:00 +36°C° 0 mm 2 mps 709 mmHg 41%
    22:00 +34°C° 0 mm 1 mps 709 mmHg 43%
    23:00 +34°C° 0 mm 1 mps 710 mmHg 44%

    25 January, Friday

    Time Temperature Precipitation Wind Pressure Humidity
    00:00 +33°C° 0 mm 1 mps 709 mmHg 45%
    01:00 +33°C° 0 mm 1 mps 709 mmHg 45%
    02:00 +32°C° 0 mm 1 mps 708 mmHg 45%
    03:00 +32°C° 0 mm 1 mps 708 mmHg 45%
    04:00 +31°C° 0 mm 1 mps 708 mmHg 44%
    05:00 +31°C° 0 mm 1 mps 708 mmHg 44%
    06:00 +33°C° 0.1 mm 1 mps 708 mmHg 40%
    07:00 +35°C° 0.1 mm 2 mps 709 mmHg 36%
    08:00 +37°C° 0.1 mm 2 mps 710 mmHg 32%
    09:00 +38°C° 0.3 mm 3 mps 710 mmHg 31%
    10:00 +39°C° 0.3 mm 3 mps 711 mmHg 29%
    11:00 +42°C° 0.3 mm 4 mps 711 mmHg 28%
    12:00 +42°C° 0 mm 5 mps 711 mmHg 27%
    13:00 +44°C° 0 mm 6 mps 711 mmHg 27%
    14:00 +45°C° 0 mm 7 mps 711 mmHg 27%
    15:00 +44°C° 1 mm 6 mps 711 mmHg 32%
    16:00 +41°C° 1 mm 5 mps 711 mmHg 36%
    17:00 +40°C° 1 mm 5 mps 710 mmHg 41%
    18:00 +37°C° 3.7 mm 5 mps 711 mmHg 46%
    19:00 +36°C° 3.7 mm 5 mps 712 mmHg 51%
    20:00 +34°C° 3.7 mm 5 mps 712 mmHg 57%
    21:00 +33°C° 3.7 mm 4 mps 714 mmHg 61%
    22:00 +32°C° 3.7 mm 4 mps 715 mmHg 66%
    23:00 +29°C° 3.7 mm 3 mps 716 mmHg 70%
    Show more